Belize, Belize

9:22 AM CST on February 08, 2016 (GMT -0600)
Philip S W Goldson International

Weather History for MZBZ - February, 2013

Change the Weather History Date:

Friday, February 15, 2013

  Actual Average Record
Temperature  
Mean Temperature 80 °F -  
Max Temperature 87 °F 84 °F 87 °F (2013)
Min Temperature 72 °F - 60 °F (1999)
Cooling Degree Days 14    
Growing Degree Days 30 (Base 50)    
Moisture  
Dew Point 73 °F    
Average Humidity 80    
Maximum Humidity 96    
Minimum Humidity 58    
Precipitation  
Precipitation 0.00 in 0.09 in - ()
Sea Level Pressure  
Sea Level Pressure 29.92 in    
Wind  
Wind Speed 4 mph ()    
Max Wind Speed 8 mph    
Max Gust Speed -    
Visibility 7.4 miles    
Events Fog    
Averages and records for this station are not official NWS values.
T = Trace of Precipitation, MM = Missing Value Source: Averaged Metar Reports

Daily Weather History Graph

Daily Weather History Graph

Search for Another Location

Airport or City:

Trip Planner

Search our weather history database for the weather conditions in past years. The results will help you decide how hot, cold, wet, or windy it might be!

Date:

Astronomy

Feb. 15, 2013 Rise Set
Actual Time 6:19 AM CST 5:55 PM CST
Civil Twilight 5:57 AM CST 6:17 PM CST
Nautical Twilight 5:32 AM CST 6:42 PM CST
Astronomical Twilight 5:06 AM CST 7:08 PM CST
Moon 9:52 AM CST (2/15) 10:54 PM CST (2/15)
Length of Visible Light 12h 19m
Length of Day
11h 35m
Waxing Crescent, 30% of the Moon is Illuminated
Feb 15
Waxing Crescent
Feb 17
First Quarter
Feb 25
Full
Mar 4
Last Quarter
Mar 11
New

Hourly Weather History & Observations

Time (CST) Temp. Heat Index Dew Point Humidity Pressure Visibility Wind Dir Wind Speed Gust Speed Precip Events Conditions
12:00 AM 76 °F - 73 °F 86% 29.91 in 12 mi Calm Calm - -   Scattered Clouds
3:00 AM 75 °F - 73 °F 90% 29.90 in 12 mi Calm Calm - -   Scattered Clouds
6:00 AM 73 °F - 72 °F 96% 29.91 in 1 mi West 4.6 mph - - Fog Light Fog
7:00 AM 73.4 °F - 71.6 °F 94% 29.94 in 1.2 mi West 3.5 mph - N/A   Partly Cloudy
7:35 AM 73.4 °F - 71.6 °F 94% 29.95 in - West 4.6 mph - N/A   Partly Cloudy
8:00 AM 75.2 °F - 73.4 °F 94% 29.96 in - West 4.6 mph - N/A   Partly Cloudy
9:00 AM 76 °F - 73 °F 86% 29.98 in 5 mi WNW 6.9 mph - -  
9:00 AM 77.0 °F - 73.4 °F 89% 29.98 in 5.0 mi WNW 6.9 mph - N/A   Scattered Clouds
10:00 AM 78.8 °F - 73.4 °F 83% 29.98 in 6.2 mi WNW 8.1 mph - N/A   Mostly Cloudy
11:00 AM 80.6 °F 85.4 °F 73.4 °F 79% 29.97 in 6.2 mi NW 6.9 mph - N/A   Mostly Cloudy
12:00 PM 84 °F - 74 °F 65% 29.95 in 12 mi NW 5.8 mph - -  
12:00 PM 84.2 °F 90.9 °F 73.4 °F 70% 29.94 in 6.2 mi NW 5.8 mph - N/A   Mostly Cloudy
1:00 PM 86.0 °F 93.4 °F 73.4 °F 66% 29.91 in 6.2 mi NW 6.9 mph - N/A   Scattered Clouds
2:00 PM 87.8 °F 93.8 °F 71.6 °F 58% 29.87 in 6.2 mi NNW 6.9 mph - N/A   Scattered Clouds
3:00 PM 86 °F - 75 °F 63% 29.87 in 12 mi East 6.9 mph - -   Partly Cloudy
3:00 PM 86.0 °F 95.1 °F 75.2 °F 70% 29.86 in 6.2 mi East 6.9 mph - N/A   Scattered Clouds
4:00 PM 84.2 °F 90.9 °F 73.4 °F 70% 29.86 in 6.2 mi East 8.1 mph - N/A   Partly Cloudy
5:00 PM 82.4 °F 89.5 °F 75.2 °F 79% 29.87 in 6.2 mi East 5.8 mph - N/A   Partly Cloudy
6:00 PM 81 °F - 75 °F 77% 29.88 in 12 mi Calm Calm - -   Scattered Clouds
6:00 PM 80.6 °F 86.2 °F 75.2 °F 84% 29.87 in 6.2 mi Calm Calm - N/A   Partly Cloudy
9:00 PM 76 °F - 74 °F 90% 29.93 in 12 mi Calm Calm - -   Clear